Wind_Speed
32 32 32 32 31 31 33 33 35 35 35 33 34 34 34 35 35 35 34 34 34 34 34 35 35 35 35 36 36 37 37 36 37 38 38 39 39 39 39 40 40 40 41 41
31 31 32 32 31 32 32 33 34 35 34 34 34 34 34 34 34 34 34 34 34 34 34 34 35 35 36 36 37 37 37 36 36 36 36 37 37 37 37 38 38 39 39 40
30 30 31 31 29 30 31 32 33 34 33 33 33 33 34 34 34 34 34 34 34 34 33 33 34 34 35 36 36 36 36 35 35 35 35 35 36 36 36 35 36 36 36 37
30 29 30 29 29 30 30 31 32 33 33 33 32 31 33 34 33 33 33 33 33 34 34 34 34 34 34 35 35 35 34 34 33 33 33 33 34 35 35 35 35 35 35 35
30 30 29 28 29 30 31 30 31 31 32 32 32 31 32 33 33 33 33 33 33 34 35 34 34 33 34 34 34 34 32 32 32 32 32 33 33 33 33 33 34 34 34 34
30 30 30 29 29 30 31 31 30 30 30 30 30 30 30 30 31 32 31 31 31 31 31 32 31 32 32 32 32 32 31 31 31 31 31 31 32 32 32 32 33 33 33 33
30 31 31 30 30 29 30 30 29 28 28 29 28 29 29 29 30 30 30 29 29 28 29 29 29 29 30 30 30 29 29 29 28 28 29 29 30 30 30 31 31 31 30 30
30 31 30 29 28 28 28 28 28 28 28 28 27 28 28 29 29 29 28 28 27 27 27 27 27 27 27 27 26 26 26 26 26 26 27 27 27 28 29 29 29 29 29 29
30 30 30 29 29 29 29 28 28 28 28 28 28 28 28 28 28 27 27 27 27 27 26 26 26 25 24 24 24 24 24 25 25 26 26 26 26 27 27 27 27 27 28 28
30 29 29 28 28 29 29 28 28 28 29 28 28 28 28 28 27 27 26 26 26 26 25 24 24 23 22 22 23 23 24 24 24 24 24 25 25 25 24 24 25 26 26 25
29 28 28 27 28 28 28 28 28 28 28 28 28 29 28 27 27 26 25 25 24 24 23 23 23 22 21 21 21 22 23 23 23 23 23 24 24 23 23 23 23 23 23 23
28 27 27 27 27 27 27 27 27 28 28 28 28 28 27 27 26 25 24 24 24 23 22 22 22 21 21 21 21 21 21 21 22 22 22 22 21 21 21 21 21 21 21 21
27 26 25 25 26 26 26 27 27 28 28 27 27 26 26 26 25 24 24 24 23 23 22 21 21 20 20 20 20 20 20 20 21 21 20 20 19 19 19 19 19 19 19 20
26 26 25 25 25 25 26 26 26 27 27 27 26 25 25 25 24 24 23 23 23 22 22 21 21 20 20 20 20 19 19 19 19 19 19 19 19 19 19 19 18 18 18 18
26 26 25 25 25 25 26 26 26 27 27 26 26 25 24 24 23 23 23 23 22 22 22 21 21 20 20 20 19 19 19 19 19 19 18 18 18 17 17 17 17 17 17 17
26 26 26 26 26 26 26 27 27 26 26 25 25 24 24 23 23 22 23 23 22 22 21 21 21 20 20 19 19 19 18 18 18 18 17 17 16 16 16 16 16 16 16 16
26 26 26 26 26 27 27 27 27 26 25 24 24 24 24 24 23 23 23 22 22 21 21 21 21 20 19 19 18 18 18 18 18 17 16 16 16 16 15 15 16 16 14 14
26 26 25 25 26 26 26 26 26 26 25 25 24 24 23 23 23 23 23 22 21 21 21 21 21 20 19 18 18 18 17 17 17 16 16 15 15 14 14 14 15 15 14 13
25 25 25 26 26 26 26 26 26 26 25 25 25 24 24 23 22 22 22 22 22 22 21 21 20 20 19 19 18 18 17 16 15 15 14 13 13 12 12 13 13 13 13 12
25 26 26 27 27 27 27 27 27 27 26 25 25 24 24 23 22 22 22 21 21 21 21 20 20 19 18 18 17 16 15 14 14 13 12 11 11 11 11 11 10 10 10 9
25 25 26 27 27 27 27 27 27 26 25 25 24 23 22 22 22 22 21 21 20 20 20 19 18 18 17 16 16 15 14 13 12 11 11 11 10 10 10 10 9 8 8 7
24 24 25 25 25 25 25 25 25 24 24 23 23 22 21 21 21 21 21 20 19 19 18 17 16 16 15 15 14 13 13 12 11 11 11 11 10 10 10 9 8 8 7 7
23 23 24 24 25 24 24 23 23 23 22 22 21 21 21 20 20 19 18 18 17 16 16 15 15 14 14 13 13 13 13 12 12 12 11 11 11 11 10 9 9 8 8 7
22 22 22 22 23 22 22 22 22 21 21 20 20 20 19 18 18 17 16 16 15 15 15 14 14 14 13 13 13 13 12 12 12 12 11 11 11 11 10 10 9 9 8 8
21 21 21 21 21 21 20 20 20 20 19 19 18 18 17 17 16 16 15 15 14 14 14 13 13 12 12 12 12 12 12 12 11 11 11 11 11 10 10 10 10 10 9 9
20 20 20 19 19 19 18 18 18 18 18 17 16 16 16 15 15 14 14 14 14 13 13 12 12 12 12 12 12 12 12 11 11 11 11 11 10 10 9 9 10 10 9 9
18 18 18 18 18 17 16 15 15 15 16 16 15 15 14 14 14 14 14 13 13 13 13 12 12 12 12 11 12 12 11 11 10 10 10 10 9 10 10 10 10 10 9 9
Wind_Direction
276 275 275 276 279 279 280 281 281 282 282 283 284 285 284 282 281 281 281 280 279 278 276 275 275 274 273 272 272 272 272 271 270 269 268 267 268 268 269 270 270 269 270 270
275 274 275 275 278 281 282 282 282 281 282 284 284 284 284 283 282 281 281 280 279 278 276 276 276 275 274 273 272 272 272 270 269 269 268 269 269 270 271 271 270 271 271 271
277 276 276 276 279 281 283 284 284 284 285 285 284 283 283 283 282 282 283 281 281 280 278 278 278 276 274 274 273 272 272 270 269 269 269 269 269 270 271 272 272 272 272 273
279 278 278 282 282 283 285 286 286 285 285 286 286 284 283 283 283 284 284 282 280 279 279 279 278 276 274 274 274 273 273 271 270 270 269 270 270 270 271 271 271 272 273 274
278 278 280 283 286 286 287 288 288 288 288 286 285 284 283 283 283 284 284 284 282 281 280 279 278 277 276 275 275 273 273 272 271 272 272 272 273 273 273 273 272 273 274 274
277 278 281 285 286 288 288 289 290 290 290 289 287 285 284 284 284 285 286 285 285 283 281 280 279 278 277 277 275 273 272 272 272 272 272 273 274 274 274 273 273 273 274 274
276 279 282 286 288 289 289 291 290 289 289 289 288 288 287 286 287 287 288 288 287 285 284 283 281 280 279 278 275 272 271 271 272 272 273 274 275 275 274 274 274 274 274 274
276 278 282 284 285 286 289 290 289 288 289 290 290 290 289 289 290 289 289 288 287 286 285 284 282 280 279 277 275 272 272 272 274 274 274 275 277 276 275 275 275 274 274 275
276 279 280 281 282 284 286 288 288 287 289 290 291 291 291 291 290 289 289 289 288 286 285 283 282 280 278 276 274 272 272 272 274 275 275 276 277 277 276 275 276 277 276 276
276 279 280 280 281 282 284 285 287 288 289 291 291 291 291 290 289 289 289 289 289 287 285 282 281 280 279 276 274 272 272 273 274 276 278 278 278 278 277 276 278 278 278 277
275 278 279 279 280 281 282 284 285 288 289 290 291 291 290 289 290 290 288 289 289 287 285 282 281 281 280 277 276 275 274 274 275 276 278 279 279 278 277 278 278 279 279 279
274 276 277 277 278 279 280 282 284 287 289 289 290 291 289 289 290 289 288 288 287 286 284 283 281 280 278 277 276 276 276 276 277 279 280 280 279 278 278 279 280 280 280 280
272 273 274 275 277 279 281 282 284 286 288 289 290 290 289 289 288 288 287 287 286 284 283 283 281 280 279 278 278 277 277 278 279 279 280 280 279 277 278 280 282 281 280 280
270 270 272 275 279 282 284 284 284 285 287 288 289 290 289 288 287 286 285 285 285 284 283 283 282 281 280 279 278 278 278 279 279 279 280 280 278 278 278 280 282 281 283 283
268 269 271 275 280 283 284 285 285 286 287 288 288 289 288 288 287 286 284 284 283 282 282 283 283 281 279 279 278 277 277 279 280 280 280 279 277 277 279 281 280 280 283 283
268 270 273 276 279 282 284 286 286 286 287 287 288 288 288 287 286 285 284 284 282 281 281 283 283 281 278 277 276 275 276 277 278 279 279 277 276 279 280 280 281 282 283 282
269 271 272 275 278 281 283 285 286 285 285 287 288 288 287 286 284 284 284 283 281 280 280 281 282 281 277 275 275 275 276 276 276 276 277 277 278 279 280 280 281 282 282 280
270 270 270 274 278 281 282 284 285 284 285 286 287 287 286 286 284 284 282 281 280 279 279 280 281 280 277 273 273 273 276 275 273 274 276 277 278 278 279 280 280 280 280 279
270 270 272 275 278 280 281 282 284 284 283 283 284 285 286 286 285 284 283 281 279 278 278 278 278 278 275 271 270 273 274 272 270 270 272 273 275 278 281 285 283 281 280 279
270 272 274 276 279 279 281 282 283 282 281 281 282 284 284 284 284 284 283 281 279 277 277 276 275 274 273 270 268 268 267 267 268 269 269 271 273 277 283 288 288 285 281 277
274 275 276 278 280 281 282 283 283 281 280 280 281 282 283 283 283 283 282 280 279 276 275 274 273 272 270 267 264 261 259 260 263 263 267 269 271 274 280 285 285 284 281 277
277 277 277 279 281 282 283 282 281 280 279 279 280 281 280 282 283 282 282 280 278 275 272 271 270 269 266 262 257 252 253 256 257 259 265 267 267 271 275 276 279 279 276 273
279 280 280 281 281 282 282 281 280 279 278 278 279 280 279 280 282 282 281 279 277 274 271 268 266 264 262 256 251 248 250 253 255 258 263 265 265 267 268 269 271 272 272 268
280 281 282 283 283 283 282 280 279 278 277 278 279 278 278 279 281 281 279 278 276 273 268 265 261 259 254 250 247 247 249 251 253 256 259 262 264 264 263 263 264 266 268 267
280 282 283 285 285 284 283 281 279 277 276 278 278 277 276 277 278 278 276 274 274 270 265 260 256 251 247 247 247 247 246 247 250 253 255 258 260 261 260 259 260 263 264 264
280 281 283 285 287 287 285 283 280 277 276 277 277 275 274 273 272 272 273 273 272 268 263 256 251 247 247 247 246 245 244 246 249 253 254 255 255 254 254 258 260 261 261 262
280 281 284 286 287 287 287 285 282 279 277 277 275 272 270 270 268 269 271 271 269 265 259 254 250 247 245 243 241 240 241 246 249 251 251 249 249 249 252 257 260 260 259 258
Height
5594 5593 5592 5592 5593 5591 5589 5588 5587 5587 5585 5585 5582 5581 5580 5578 5576 5575 5574 5572 5571 5570 5569 5568 5567 5566 5566 5565 5564 5563 5563 5562 5561 5561 5561 5560 5560 5560 5559 5559 5559 5558 5558 5558
5586 5585 5584 5584 5584 5583 5581 5580 5578 5577 5577 5576 5573 5571 5570 5569 5567 5566 5564 5563 5562 5560 5559 5558 5558 5557 5556 5555 5554 5553 5552 5552 5551 5551 5550 5550 5550 5549 5549 5549 5548 5548 5547 5547
5577 5577 5575 5576 5577 5575 5574 5572 5570 5569 5569 5567 5564 5562 5561 5559 5558 5557 5555 5554 5552 5551 5549 5549 5548 5547 5546 5545 5544 5543 5542 5541 5541 5541 5541 5540 5540 5539 5539 5538 5538 5537 5537 5537
5569 5569 5568 5572 5569 5568 5566 5564 5562 5560 5559 5557 5555 5553 5551 5550 5549 5547 5546 5544 5543 5541 5540 5539 5537 5536 5535 5534 5534 5533 5532 5532 5531 5531 5531 5530 5530 5530 5529 5529 5528 5528 5527 5527
5561 5560 5560 5563 5561 5559 5557 5556 5554 5552 5550 5548 5546 5544 5543 5541 5539 5538 5536 5535 5533 5531 5530 5528 5527 5526 5525 5524 5524 5523 5523 5523 5522 5522 5521 5521 5521 5520 5519 5519 5519 5518 5518 5517
5554 5552 5553 5556 5554 5551 5550 5548 5547 5544 5542 5540 5537 5536 5536 5533 5531 5529 5527 5525 5524 5522 5520 5519 5517 5516 5515 5514 5514 5514 5514 5513 5513 5513 5512 5512 5511 5511 5510 5510 5509 5509 5508 5508
5546 5545 5545 5547 5545 5543 5543 5542 5539 5536 5534 5532 5530 5528 5527 5525 5523 5521 5519 5517 5515 5513 5511 5510 5509 5507 5506 5506 5505 5505 5504 5504 5504 5504 5504 5503 5503 5502 5501 5501 5500 5500 5499 5499
5539 5538 5541 5539 5537 5536 5535 5532 5530 5528 5526 5524 5522 5520 5519 5517 5515 5513 5511 5509 5507 5505 5503 5502 5500 5499 5498 5497 5497 5496 5496 5496 5496 5496 5496 5495 5494 5494 5493 5492 5492 5491 5491 5490
5532 5534 5532 5530 5529 5527 5526 5525 5523 5521 5519 5518 5516 5514 5512 5510 5508 5505 5503 5502 5499 5497 5496 5494 5493 5491 5491 5490 5489 5489 5489 5489 5489 5489 5488 5488 5487 5486 5485 5484 5484 5483 5482 5482
5524 5524 5523 5522 5521 5519 5518 5517 5515 5514 5512 5510 5508 5506 5504 5502 5500 5498 5496 5494 5492 5490 5488 5487 5486 5484 5484 5483 5482 5482 5482 5482 5482 5481 5481 5480 5479 5478 5478 5477 5476 5475 5474 5474
5516 5516 5515 5514 5513 5512 5510 5509 5508 5506 5505 5503 5501 5499 5497 5495 5493 5491 5489 5487 5485 5483 5482 5480 5479 5478 5477 5477 5476 5476 5476 5475 5475 5474 5474 5473 5472 5471 5470 5470 5469 5468 5467 5466
5509 5509 5508 5507 5505 5504 5503 5502 5501 5499 5498 5496 5494 5491 5489 5487 5486 5484 5483 5481 5479 5477 5476 5474 5473 5472 5472 5471 5470 5470 5469 5469 5468 5468 5467 5466 5465 5465 5464 5463 5463 5461 5461 5460
5501 5500 5499 5499 5498 5497 5496 5495 5493 5492 5490 5488 5486 5484 5482 5480 5479 5477 5476 5474 5473 5471 5470 5469 5468 5467 5466 5465 5465 5464 5464 5463 5462 5461 5461 5460 5459 5459 5458 5458 5457 5456 5455 5454
5493 5492 5492 5491 5490 5489 5488 5487 5486 5484 5482 5481 5479 5477 5475 5473 5472 5470 5469 5468 5466 5465 5464 5463 5462 5461 5460 5459 5459 5458 5458 5457 5456 5456 5455 5454 5454 5454 5453 5452 5452 5451 5450 5449
5485 5485 5485 5484 5483 5482 5481 5479 5478 5476 5475 5473 5471 5469 5467 5466 5465 5463 5462 5461 5460 5459 5458 5457 5456 5455 5454 5453 5453 5452 5452 5451 5451 5450 5449 5449 5449 5449 5448 5448 5447 5446 5446 5445
5477 5477 5477 5476 5476 5475 5473 5472 5470 5469 5467 5466 5464 5462 5461 5459 5458 5456 5455 5454 5453 5452 5452 5451 5450 5449 5448 5447 5447 5447 5446 5446 5445 5445 5445 5444 5444 5444 5443 5443 5443 5442 5441 5440
5469 5469 5469 5469 5468 5467 5466 5464 5463 5461 5460 5458 5457 5455 5453 5452 5451 5450 5449 5447 5446 5446 5445 5444 5443 5442 5442 5441 5441 5441 5441 5440 5440 5440 5440 5440 5439 5439 5439 5439 5438 5438 5437 5436
5461 5461 5461 5461 5460 5459 5458 5456 5455 5453 5452 5451 5449 5448 5446 5445 5444 5443 5442 5440 5439 5439 5438 5437 5437 5436 5436 5435 5435 5435 5435 5435 5435 5435 5435 5435 5435 5435 5435 5434 5434 5433 5433 5432
5453 5453 5453 5453 5452 5451 5450 5449 5447 5446 5444 5443 5442 5441 5439 5438 5437 5436 5434 5433 5433 5432 5432 5431 5430 5430 5429 5429 5429 5430 5430 5430 5430 5431 5431 5431 5431 5431 5431 5430 5430 5429 5428 5428
5446 5446 5445 5444 5444 5443 5442 5441 5439 5438 5437 5435 5434 5433 5432 5431 5430 5428 5427 5426 5426 5425 5425 5424 5424 5423 5423 5423 5424 5424 5425 5426 5426 5426 5427 5427 5427 5427 5427 5427 5426 5426 5425 5425
5438 5438 5437 5437 5436 5435 5434 5432 5431 5430 5429 5428 5427 5426 5425 5424 5423 5421 5420 5420 5419 5418 5418 5418 5418 5417 5418 5418 5418 5419 5420 5421 5422 5423 5423 5423 5424 5424 5424 5424 5424 5423 5423 5423
5430 5430 5430 5429 5428 5427 5426 5424 5423 5422 5421 5420 5419 5418 5417 5416 5416 5414 5413 5413 5412 5412 5412 5412 5412 5412 5412 5413 5414 5415 5416 5417 5418 5419 5420 5420 5420 5421 5421 5421 5421 5421 5421 5421
5423 5422 5422 5421 5420 5419 5418 5417 5415 5414 5413 5413 5412 5411 5410 5409 5408 5408 5407 5406 5406 5406 5406 5406 5406 5407 5408 5408 5410 5411 5412 5413 5415 5416 5416 5417 5417 5418 5418 5418 5419 5419 5419 5420
5416 5415 5414 5414 5413 5412 5411 5409 5408 5407 5407 5406 5405 5404 5404 5403 5402 5401 5401 5401 5400 5400 5401 5401 5402 5402 5403 5404 5405 5407 5408 5409 5411 5412 5412 5413 5414 5414 5415 5415 5416 5416 5417 5418
5409 5408 5408 5407 5406 5404 5403 5402 5401 5400 5400 5399 5399 5398 5398 5397 5397 5396 5396 5396 5396 5396 5396 5397 5397 5398 5399 5400 5401 5403 5404 5405 5407 5408 5409 5410 5410 5411 5412 5413 5413 5414 5414 5415
5403 5402 5401 5400 5399 5398 5397 5396 5395 5394 5393 5393 5393 5392 5392 5392 5391 5391 5391 5391 5391 5391 5392 5393 5393 5394 5395 5396 5397 5399 5400 5402 5403 5404 5405 5406 5407 5408 5409 5410 5410 5411 5412 5412
5397 5396 5395 5395 5393 5392 5391 5390 5389 5388 5388 5387 5387 5387 5387 5387 5387 5387 5387 5387 5387 5387 5388 5389 5389 5390 5391 5392 5394 5395 5397 5398 5400 5401 5402 5403 5404 5405 5406 5407 5407 5408 5409 5409